This is the latest recevied weather packets stored in our database for station/object KG2V. If no packets are shown the sender has not sent any weather packets the latest 10 day(s).
| Time | Temp. | Humidity | Pressure | Rain* | Wind** | Luminosity | Snow |
|---|---|---|---|---|---|---|---|
| 1778278567 | 13.33° C | 43% | 1005.7 hPa | 0 mm | - | 87 W/m² | - |
| 1778278263 | 13.33° C | 43% | 1005.8 hPa | 0 mm | - | 100 W/m² | - |
| 1778277959 | 13.33° C | 42% | 1005.8 hPa | 0 mm | - | 104 W/m² | - |
| 1778277655 | 13.33° C | 42% | 1005.8 hPa | 0 mm | - | 100 W/m² | - |
| 1778277353 | 13.33° C | 41% | 1006.1 hPa | 0 mm | - | 105 W/m² | - |
| 1778277050 | 13.33° C | 39% | 1005.8 hPa | 0 mm | - | 82 W/m² | - |
| 1778276747 | 13.89° C | 41% | 1005.9 hPa | 0 mm | - | 73 W/m² | - |
| 1778276443 | 13.89° C | 43% | 1005.8 hPa | 0 mm | - | 173 W/m² | - |
| 1778276141 | 13.89° C | 41% | 1005.8 hPa | 0 mm | - | 113 W/m² | - |
| 1778275836 | 13.33° C | 46% | 1005.9 hPa | 0 mm | - | 176 W/m² | - |
| 1778275533 | 13.89° C | 43% | 1005.8 hPa | 0 mm | - | 214 W/m² | - |
| 1778275229 | 13.89° C | 42% | 1005.9 hPa | 0 mm | - | 204 W/m² | - |
| 1778274925 | 13.33° C | 40% | 1005.9 hPa | 0 mm | - | 205 W/m² | - |
| 1778274622 | 13.33° C | 42% | 1005.7 hPa | 0 mm | - | 113 W/m² | - |
| 1778274318 | 13.89° C | 44% | 1005.8 hPa | 0 mm | - | 152 W/m² | - |
| 1778274016 | 13.89° C | 43% | 1006 hPa | 0 mm | - | 195 W/m² | - |
| 1778273713 | 13.89° C | 49% | 1006.1 hPa | 0 mm | - | 166 W/m² | - |
| 1778273409 | 13.33° C | 47% | 1005.8 hPa | 0 mm | - | 250 W/m² | - |
| 1778273106 | 13.33° C | 45% | 1006.2 hPa | 0 mm | - | 275 W/m² | - |
| 1778272801 | 13.89° C | 49% | 1006.2 hPa | 0 mm | - | 184 W/m² | - |
| 1778272497 | 13.33° C | 52% | 1006 hPa | 0 mm | - | 229 W/m² | - |
| 1778272193 | 13.33° C | 52% | 1006.4 hPa | 0 mm | - | 276 W/m² | - |
| 1778271891 | 13.89° C | 43% | 1006.2 hPa | 0 mm | - | 357 W/m² | - |
| 1778271587 | 14.44° C | 45% | 1006.5 hPa | 0 mm | - | 279 W/m² | - |
| 1778271284 | 15° C | 39% | 1006.4 hPa | 0 mm | - | 487 W/m² | - |
* Rain latest hour (hover to see other rain measurements)
** Current wind speed in m/s (hover to see current wind gust speed)